Regional Weather Roundup
Issued by NWS Green Bay, WI

Home | Current Version | Previous Version | Graphics & Text | Print | Product List | Glossary Off
Versions: 1 2 3 4 5 6 7 8 9 10 11 12 13 14 15 16 17 18 19 20 21 22 23 24 25 26 27 28 29 30 31 32 33 34 35 36 37 38 39 40 41 42 43 44 45 46 47 48 49 50

000
ASUS43 KGRB 010610
RWRGRB

NORTH-CENTRAL AND NORTHEAST WISCONSIN REGIONAL WEATHER ROUNDUP
NATIONAL WEATHER SERVICE GREEN BAY WI
1200 AM CST SUN MAR 01 2015

WIZ005-009-010>012-018-019-010700-
NORTH CENTRAL WISCONSIN

CITY           SKY/WX    TMP DP  RH WIND       PRES   REMARKS
IRONWOOD       MOCLDY    12  -2  52 SW14      30.22F WCI  -3
MANITOWISH WTR MOCLDY     9  -4  54 SW7       30.24F WCI  -2
ARBOR VITAE      N/A     11  -2  54 SW5       30.25S WCI   3
EAGLE RIVER    MOCLDY    11  -5  48 SW8G17    30.24F WCI  -1
LAND O LAKES   CLOUDY    11  -3  53 SW5       30.24F WCI   3
RHINELANDER    PTCLDY    11  -3  53 SW12      30.27F WCI  -3
PHILLIPS       MOCLDY    10  -2  58 S6        30.27S WCI   0
ANTIGO         CLOUDY    11   0  62 SW10      30.30F WCI  -3
TOMAHAWK       PTCLDY    10  -2  58 CALM      30.29F
MERRILL        PTCLDY    12  -1  54 SW7       30.32S WCI   2
$$

WIZ013-073-010700-
NORTHEAST WISCONSIN

CITY           SKY/WX    TMP DP  RH WIND       PRES   REMARKS
IRON MOUNTAIN  CLOUDY    11  -1  58 S7        30.29F WCI   0
MARINETTE      CLOUDY    14   1  57 SW7       30.38F WCI   4
OCONTO         CLOUDY    15   2  57 SW6       30.40F WCI   6
$$

WIZ017-030-035>037-045-010700-
CENTRAL WISCONSIN

CITY           SKY/WX    TMP DP  RH WIND       PRES   REMARKS
MEDFORD        CLEAR      8  -2  62 S7        30.29F WCI  -3
WAUSAU         MOCLDY    12  -1  56 SW9       30.33F WCI   0
MOSINEE        MOCLDY    12   1  62 SW10      30.35S WCI  -1
MARSHFIELD     CLOUDY    12   0  58 S9        30.34F WCI   0
WISC RAPIDS    CLOUDY    13  -1  54 SW7       30.39F WCI   3
STEVENS POINT  CLOUDY    11   1  63 S7        30.37S WCI   1
WAUPACA        CLOUDY    16   2  52 S7        30.40F WCI   7
SHAWANO        CLOUDY    16   3  55 SW5       30.38F WCI   9
CLINTONVILLE   CLOUDY    16   3  57 SW7       30.39F WCI   6
$$

WIZ038-039-048-051-010700-
FOX VALLEY

CITY           SKY/WX    TMP DP  RH WIND       PRES   REMARKS
NWS GREEN BAY  CLOUDY    15   4  61 SW12      30.41F WCI   2
APPLETON       CLOUDY    14   3  62 S10       30.39F WCI   1
OSHKOSH        CLOUDY    14   3  61 S10       30.41F WCI   1
FOND DU LAC    FLURRIES  15   6  67 SW12      30.41F WCI   2
$$

WIZ022-050-052-010700-
EAST CENTRAL WISCONSIN

CITY           SKY/WX    TMP DP  RH WIND       PRES   REMARKS
STURGEON BAY   CLOUDY    16   1  53 SW10      30.41F WCI   3
MANITOWOC      CLOUDY    17   6  62 SW8       30.43F WCI   7
SHEBOYGAN      CLOUDY    16   7  67 SW10      30.43F WCI   4
$$

LMZ563-521-522-541>543-010700-
LAKESHORE

STATION/POSITION TIME  TEMP    WIND        PRES    VSBY  WAVE
                       AIR SEA DIR/SP/G                  HT/PER
                 (UTC) (F)     (DEG/KT/KT) (MB)    (MI)  (FT/S)
SHEBOYGAN LKSHOR 0600   18     200/ 13/ 16 1032.1F
KEWAUNEE LKSHORE 0600   17     220/  8/ 12 1029.2F
NORTHPORT PIER   0600   15     210/  3/  5 1029.5F
SISTER BAY LKSHO 0600   16     210/ 11/ 13   N/A
CHAMBERS ISLAND  0600   14     190/  6/ 11 1029.1F
MENOMINEE LKSHOR 0600   14     210/ 11     1029.8F
$$



USA.gov is the U.S. government's official web portal to all federal, state and local government web resources and services.